Location: G�kdere
(37.0328°N, 30.9000°E)
Time: 22:29:16
(UTC+00:00)

Cosmos 2184 Rocket - Pass Details

Date: 03 March 2021
Orbit: 960 x 1001 km, 82.9° (Epoch: 18 April)

Event Time Altitude Azimuth Distance (km) Brightness Sun altitude
Rises 16:06:17 0° 178° (S) 3,626 7.0 -3.6°
Reaches altitude 10° 16:08:46 10° 176° (S) 2,684 6.4 -4.0°
Maximum altitude 16:14:52 72° 94° (E) 1,012 4.0 -5.3°
Drops below altitude 10° 16:21:02 10° 11° (N) 2,714 6.2 -6.5°
Sets 16:23:33 0° 10° (N) 3,669 6.9 -7.0°
